TimeEDT,TemperatureF,Dew PointF,Humidity,Sea Level PressureIn,VisibilityMPH,Wind Direction,Wind SpeedMPH,Gust SpeedMPH,PrecipitationIn,Events,Conditions,WindDirDegrees,DateUTC
12:15 AM,64.8,57.2,76,29.94,10.0,Calm,Calm,-,N/A,,Clear,0,2013-04-11 04:15:00
12:35 AM,62.2,56.5,81,29.94,10.0,Calm,Calm,-,N/A,,Clear,0,2013-04-11 04:35:00
12:55 AM,62.1,56.7,82,29.95,10.0,Calm,Calm,-,N/A,,Clear,0,2013-04-11 04:55:00
1:15 AM,62.8,57.0,81,29.95,10.0,SSE,3.5,-,N/A,,Clear,160,2013-04-11 05:15:00
1:35 AM,63.5,56.7,78,29.95,10.0,South,5.8,-,N/A,,Clear,170,2013-04-11 05:35:00
1:55 AM,65.3,57.2,75,29.94,10.0,South,5.8,-,N/A,,Clear,170,2013-04-11 05:55:00
2:15 AM,63.9,57.2,79,29.94,10.0,South,3.5,-,N/A,,Clear,180,2013-04-11 06:15:00
2:35 AM,64.6,57.2,77,29.94,10.0,Calm,Calm,-,N/A,,Clear,0,2013-04-11 06:35:00
2:55 AM,60.8,56.5,86,29.92,10.0,Calm,Calm,-,N/A,,Clear,0,2013-04-11 06:55:00
3:15 AM,59.4,55.8,88,29.92,10.0,Calm,Calm,-,N/A,,Clear,0,2013-04-11 07:15:00
3:35 AM,57.7,55.4,92,29.91,10.0,Calm,Calm,-,N/A,,Clear,0,2013-04-11 07:35:00
3:55 AM,57.2,55.8,95,29.90,10.0,Calm,Calm,-,N/A,,Clear,0,2013-04-11 07:55:00
4:15 AM,55.8,55.4,99,29.91,1.8,Calm,Calm,-,N/A,,Mist,0,2013-04-11 08:15:00
4:35 AM,56.7,56.1,98,29.91,10.0,Calm,Calm,-,N/A,,Clear,0,2013-04-11 08:35:00
4:55 AM,55.8,55.0,97,29.91,2.5,Calm,Calm,-,N/A,,Clear,0,2013-04-11 08:55:00
5:15 AM,55.2,54.1,96,29.91,10.0,Calm,Calm,-,N/A,,Clear,0,2013-04-11 09:15:00
5:35 AM,54.7,53.6,96,29.91,10.0,Calm,Calm,-,N/A,,Clear,0,2013-04-11 09:35:00
5:55 AM,54.3,53.2,96,29.91,7.0,Calm,Calm,-,N/A,,Clear,0,2013-04-11 09:55:00
6:15 AM,54.9,53.1,94,29.91,10.0,Calm,Calm,-,N/A,,Clear,0,2013-04-11 10:15:00
6:35 AM,54.5,52.7,94,29.92,10.0,Calm,Calm,-,N/A,,Clear,0,2013-04-11 10:35:00
6:55 AM,53.1,52.5,98,29.93,7.0,Calm,Calm,-,N/A,,Clear,0,2013-04-11 10:55:00
7:15 AM,53.2,53.1,99,29.92,1.0,Calm,Calm,-,N/A,,Mist,0,2013-04-11 11:15:00
7:35 AM,54.0,53.6,99,29.92,7.0,Calm,Calm,-,N/A,,Scattered Clouds,0,2013-04-11 11:35:00
7:55 AM,55.0,54.3,97,29.92,7.0,Calm,Calm,-,N/A,,Mostly Cloudy,0,2013-04-11 11:55:00
8:15 AM,57.2,55.4,94,29.94,10.0,Calm,Calm,-,N/A,,Mostly Cloudy,0,2013-04-11 12:15:00
8:35 AM,59.7,57.7,93,29.95,10.0,Calm,Calm,-,N/A,,Mostly Cloudy,0,2013-04-11 12:35:00
8:55 AM,62.4,58.1,86,29.95,10.0,SSE,3.5,-,N/A,,Overcast,150,2013-04-11 12:55:00
9:15 AM,63.5,58.3,83,29.95,10.0,SSE,3.5,-,N/A,,Overcast,150,2013-04-11 13:15:00
9:35 AM,64.8,58.1,79,29.94,10.0,SE,3.5,-,N/A,,Overcast,140,2013-04-11 13:35:00
9:55 AM,66.6,57.9,74,29.93,10.0,SSE,5.8,-,N/A,,Overcast,150,2013-04-11 13:55:00
10:15 AM,68.7,57.9,68,29.93,10.0,South,5.8,-,N/A,,Overcast,170,2013-04-11 14:15:00
10:35 AM,70.9,59.4,67,29.93,10.0,South,9.2,-,N/A,,Overcast,170,2013-04-11 14:35:00
10:55 AM,71.6,59.7,66,29.92,10.0,South,10.4,-,N/A,,Overcast,180,2013-04-11 14:55:00
11:15 AM,71.1,61.3,71,29.92,10.0,South,11.5,-,N/A,,Overcast,170,2013-04-11 15:15:00
11:35 AM,72.0,62.6,72,29.92,10.0,South,13.8,18.4,N/A,,Overcast,170,2013-04-11 15:35:00
11:55 AM,71.6,63.7,76,29.92,10.0,South,11.5,20.7,N/A,,Overcast,190,2013-04-11 15:55:00
12:15 PM,71.1,63.9,78,29.92,10.0,South,15.0,23.0,N/A,,Overcast,170,2013-04-11 16:15:00
12:35 PM,72.3,64.4,76,29.90,10.0,SSE,11.5,17.3,N/A,,Overcast,160,2013-04-11 16:35:00
12:55 PM,75.2,64.4,69,29.89,10.0,South,13.8,20.7,N/A,,Overcast,170,2013-04-11 16:55:00
1:15 PM,74.7,65.1,72,29.87,10.0,South,13.8,18.4,N/A,,Overcast,180,2013-04-11 17:15:00
1:35 PM,75.9,65.7,70,29.86,10.0,South,13.8,19.6,N/A,,Overcast,170,2013-04-11 17:35:00
1:55 PM,76.5,65.8,70,29.85,10.0,South,10.4,-,N/A,,Overcast,180,2013-04-11 17:55:00
2:15 PM,77.0,65.5,67,29.83,10.0,South,15.0,21.9,N/A,,Overcast,180,2013-04-11 18:15:00
2:35 PM,77.9,66.2,67,29.81,10.0,South,12.7,17.3,N/A,,Overcast,180,2013-04-11 18:35:00
2:55 PM,79.0,65.8,64,29.80,10.0,South,15.0,21.9,N/A,,Overcast,170,2013-04-11 18:55:00
3:15 PM,80.2,66.0,62,29.77,10.0,SSE,16.1,25.3,N/A,,Overcast,160,2013-04-11 19:15:00
3:35 PM,80.1,65.5,61,29.75,10.0,South,16.1,24.2,N/A,,Overcast,180,2013-04-11 19:35:00
3:55 PM,80.8,64.9,58,29.75,10.0,South,11.5,16.1,N/A,,Overcast,180,2013-04-11 19:55:00
4:15 PM,80.2,64.8,59,29.74,10.0,South,15.0,24.2,N/A,,Overcast,180,2013-04-11 20:15:00
4:35 PM,80.4,64.4,58,29.72,10.0,South,19.6,25.3,N/A,,Overcast,170,2013-04-11 20:35:00
4:55 PM,79.7,64.6,60,29.71,10.0,South,16.1,25.3,N/A,,Overcast,170,2013-04-11 20:55:00
5:15 PM,79.2,64.8,61,29.70,10.0,South,16.1,21.9,N/A,,Mostly Cloudy,170,2013-04-11 21:15:00
5:35 PM,79.0,65.1,62,29.70,10.0,South,10.4,-,N/A,,Scattered Clouds,180,2013-04-11 21:35:00
5:55 PM,78.4,65.3,64,29.69,10.0,South,15.0,21.9,N/A,,Mostly Cloudy,170,2013-04-11 21:55:00
6:15 PM,77.9,65.7,66,29.69,10.0,South,13.8,23.0,N/A,,Overcast,190,2013-04-11 22:15:00
6:35 PM,77.4,65.8,67,29.68,10.0,South,9.2,-,N/A,,Overcast,180,2013-04-11 22:35:00
6:55 PM,75.6,67.1,75,29.68,10.0,SSW,6.9,-,N/A,Rain,Rain,200,2013-04-11 22:55:00
7:15 PM,73.6,67.8,82,29.69,10.0,SSW,6.9,-,N/A,,Overcast,200,2013-04-11 23:15:00
7:35 PM,73.0,68.0,84,29.69,10.0,South,5.8,-,N/A,,Mostly Cloudy,170,2013-04-11 23:35:00
7:55 PM,74.1,67.3,79,29.67,10.0,South,13.8,19.6,N/A,Rain,Light Rain,180,2013-04-11 23:55:00
8:15 PM,74.5,67.1,78,29.68,10.0,South,11.5,-,N/A,,Mostly Cloudy,190,2013-04-12 00:15:00
8:35 PM,72.9,67.5,83,29.69,10.0,SSW,9.2,-,N/A,,Mostly Cloudy,200,2013-04-12 00:35:00
8:55 PM,72.7,68.0,85,29.69,10.0,South,5.8,-,N/A,Rain-Thunderstorm,Light Thunderstorms and Rain,190,2013-04-12 00:55:00
9:15 PM,71.1,68.5,92,29.68,10.0,SE,3.5,-,N/A,Rain-Thunderstorm,Light Thunderstorms and Rain,140,2013-04-12 01:15:00
9:35 PM,71.1,68.4,91,29.68,10.0,SSE,6.9,-,N/A,Rain-Thunderstorm,Light Thunderstorms and Rain,160,2013-04-12 01:35:00
9:55 PM,71.2,68.9,92,29.70,7.0,South,8.1,-,N/A,Rain-Thunderstorm,Thunderstorms and Rain,180,2013-04-12 01:55:00
10:15 PM,71.1,69.1,93,29.73,7.0,WSW,5.8,-,N/A,Rain-Thunderstorm,Thunderstorms and Rain,250,2013-04-12 02:15:00
10:35 PM,70.7,69.3,95,29.74,5.0,Calm,Calm,-,N/A,Rain-Thunderstorm,Thunderstorms and Rain,0,2013-04-12 02:35:00
10:55 PM,70.0,69.4,98,29.79,1.2,SW,13.8,25.3,N/A,Rain-Thunderstorm,Heavy Thunderstorms and Rain,230,2013-04-12 02:55:00
11:15 PM,67.1,64.4,91,29.74,7.0,South,15.0,19.6,N/A,Rain-Thunderstorm,Thunderstorms and Rain,170,2013-04-12 03:15:00
11:35 PM,65.8,63.9,93,29.66,10.0,SE,5.8,18.4,N/A,Rain,Light Rain,140,2013-04-12 03:35:00
11:55 PM,66.0,64.2,94,29.73,10.0,South,4.6,-,N/A,,Overcast,190,2013-04-12 03:55:00